Torna al catalogo

ARIANE 1 DEB

LostHEO
NORAD 26534·DEBRIS·🇫🇷 France

Lanciato Dec 24, 1979 da Guiana Space Centre

Loading…

Prossimi Passaggi (prossime 24 ore)

TLE

ObsoletoSource: Space-Track

Epoca: May 3, 2024, 07:27 UTC

1 26534U 79104Q   24124.31051666  .00001528  00000-0  51610-2 0  9993
2 26534  15.6415 128.7555 7010031 128.5515 317.8528  2.51960688216824

Traccia ARIANE 1 DEB in tempo reale con AllMySat

Download on the App Store